N3368K ENBN-ENVA

Flight info

Callsign N3368K
Flight time 0h 52m
Altitude 8000
Route SOMBA DCT NUPGO
Aircraft BE36/L-BDFGLORY/S

Departure

Time 2026-05-06 14:46
Airport Brønnøysund Airport, Brønnøy (ENBN)

Arrival

Time 2026-05-06 15:38
Airport Trondheim Airport, Værnes (ENVA)
Time Latitude Longitude Altitude Speed Heading
2026-05-06 14:37 65.46099 12.21256 23 ft 0 kts 308°
2026-05-06 14:42 65.46098 12.21260 23 ft 2 kts 308°
2026-05-06 14:42 65.46090 12.21294 23 ft 2 kts 263°
2026-05-06 14:42 65.46092 12.21304 23 ft 0 kts 231°
2026-05-06 14:43 65.46049 12.21285 22 ft 10 kts 143°
2026-05-06 14:43 65.46054 12.21398 26 ft 9 kts 41°
2026-05-06 14:44 65.46123 12.21533 29 ft 15 kts 45°
2026-05-06 14:44 65.46191 12.21710 33 ft 8 kts 61°
2026-05-06 14:44 65.46194 12.21722 33 ft 0 kts 81°
2026-05-06 14:45 65.46156 12.21829 32 ft 7 kts 195°
2026-05-06 14:45 65.46145 12.21815 32 ft 0 kts 217°
2026-05-06 14:45 65.46114 12.21749 32 ft 36 kts 221°
2026-05-06 14:45 65.45700 12.21024 125 ft 96 kts 221°
2026-05-06 14:46 65.45078 12.19971 445 ft 116 kts 224°
2026-05-06 14:46 65.44434 12.18857 1090 ft 114 kts 212°
2026-05-06 14:46 65.43768 12.17992 1691 ft 110 kts 213°
2026-05-06 14:46 65.43075 12.17091 2268 ft 113 kts 213°
2026-05-06 14:47 65.42383 12.16208 2841 ft 115 kts 213°
2026-05-06 14:47 65.41663 12.15297 3378 ft 117 kts 213°
2026-05-06 14:47 65.40951 12.14398 3885 ft 117 kts 213°
2026-05-06 14:47 65.40213 12.13472 4376 ft 119 kts 212°
2026-05-06 14:48 65.39484 12.12558 4822 ft 121 kts 212°
2026-05-06 14:48 65.38736 12.11620 5228 ft 122 kts 212°
2026-05-06 14:48 65.37986 12.10681 5626 ft 122 kts 212°
2026-05-06 14:48 65.37244 12.09753 5991 ft 123 kts 212°
2026-05-06 14:49 65.36463 12.08779 6355 ft 125 kts 212°
2026-05-06 14:49 65.35693 12.07818 6716 ft 124 kts 212°
2026-05-06 14:49 65.34928 12.06861 7049 ft 125 kts 212°
2026-05-06 14:49 65.34147 12.05888 7356 ft 128 kts 211°
2026-05-06 14:50 65.33353 12.04899 7690 ft 129 kts 211°
2026-05-06 14:50 65.32557 12.03908 7970 ft 133 kts 211°
2026-05-06 14:50 65.31680 12.02806 7983 ft 150 kts 211°
2026-05-06 14:50 65.30670 12.01988 7982 ft 163 kts 190°
2026-05-06 14:51 65.29534 12.01689 7983 ft 164 kts 192°
2026-05-06 14:51 65.28396 12.01340 7981 ft 165 kts 192°
2026-05-06 14:51 65.27255 12.00996 7983 ft 166 kts 191°
2026-05-06 14:51 65.26105 12.00653 7981 ft 167 kts 190°
2026-05-06 14:52 65.24946 12.00309 7978 ft 167 kts 191°
2026-05-06 14:52 65.23791 11.99966 7979 ft 167 kts 191°
2026-05-06 14:52 65.22639 11.99621 7980 ft 166 kts 191°
2026-05-06 14:52 65.21488 11.99276 7980 ft 168 kts 191°
2026-05-06 14:53 65.20358 11.98940 7980 ft 168 kts 191°
2026-05-06 14:53 65.19164 11.98586 7980 ft 168 kts 191°
2026-05-06 14:53 65.18003 11.98240 7977 ft 168 kts 190°
2026-05-06 14:53 65.16843 11.97895 7977 ft 168 kts 190°
2026-05-06 14:54 65.15684 11.97553 7973 ft 168 kts 191°
2026-05-06 14:54 65.14525 11.97208 7976 ft 168 kts 192°
2026-05-06 14:54 65.13364 11.96865 7976 ft 168 kts 192°
2026-05-06 14:54 65.12207 11.96517 7974 ft 167 kts 192°
2026-05-06 14:55 65.11054 11.96181 7974 ft 167 kts 192°
2026-05-06 14:55 65.09905 11.95843 7972 ft 166 kts 190°
2026-05-06 14:55 65.08757 11.95505 7973 ft 167 kts 191°
2026-05-06 14:55 65.07607 11.95164 7972 ft 167 kts 190°
2026-05-06 14:56 65.06452 11.94823 7972 ft 168 kts 190°
2026-05-06 14:56 65.05313 11.94491 7970 ft 166 kts 191°
2026-05-06 14:56 65.04169 11.94153 7970 ft 166 kts 191°
2026-05-06 14:56 65.03024 11.93812 7970 ft 166 kts 192°
2026-05-06 14:57 65.01880 11.93481 7972 ft 166 kts 191°
2026-05-06 14:57 65.00737 11.93146 7976 ft 166 kts 192°
2026-05-06 14:57 64.99589 11.92809 7977 ft 166 kts 192°
2026-05-06 14:57 64.98474 11.92487 7975 ft 166 kts 192°
2026-05-06 14:58 64.97302 11.92136 7977 ft 165 kts 192°
2026-05-06 14:58 64.96187 11.91810 7973 ft 164 kts 192°
2026-05-06 14:58 64.95030 11.91475 7973 ft 164 kts 192°
2026-05-06 14:58 64.93898 11.91142 7973 ft 165 kts 192°
2026-05-06 14:59 64.92757 11.90811 7971 ft 165 kts 191°
2026-05-06 14:59 64.91612 11.90479 7972 ft 166 kts 192°
2026-05-06 14:59 64.90854 11.90261 7976 ft 167 kts 192°
2026-05-06 14:59 64.89700 11.89926 7975 ft 167 kts 190°
2026-05-06 15:00 64.88166 11.89472 7978 ft 168 kts 191°
2026-05-06 15:00 64.87009 11.89133 7979 ft 168 kts 191°
2026-05-06 15:00 64.86228 11.88908 7979 ft 168 kts 191°
2026-05-06 15:00 64.85070 11.88582 7980 ft 167 kts 192°
2026-05-06 15:01 64.83916 11.88241 7978 ft 167 kts 191°
2026-05-06 15:01 64.82767 11.87911 7978 ft 166 kts 192°
2026-05-06 15:01 64.81618 11.87578 7972 ft 166 kts 192°
2026-05-06 15:01 64.80464 11.87242 7970 ft 168 kts 191°
2026-05-06 15:02 64.79322 11.86914 7970 ft 168 kts 191°
2026-05-06 15:02 64.78161 11.86580 7973 ft 169 kts 191°
2026-05-06 15:02 64.76992 11.86242 7971 ft 169 kts 191°
2026-05-06 15:02 64.75823 11.85905 7973 ft 169 kts 191°
2026-05-06 15:03 64.74659 11.85572 7973 ft 168 kts 191°
2026-05-06 15:03 64.73497 11.85238 7975 ft 168 kts 191°
2026-05-06 15:03 64.72336 11.84905 7973 ft 168 kts 192°
2026-05-06 15:03 64.71174 11.84570 7974 ft 169 kts 191°
2026-05-06 15:04 64.70009 11.84235 7975 ft 168 kts 191°
2026-05-06 15:04 64.68841 11.83903 7977 ft 169 kts 192°
2026-05-06 15:04 64.67696 11.83576 7995 ft 170 kts 192°
2026-05-06 15:04 64.66500 11.83231 7998 ft 169 kts 192°
2026-05-06 15:05 64.65330 11.82897 8001 ft 170 kts 192°
2026-05-06 15:05 64.64160 11.82562 7998 ft 169 kts 191°
2026-05-06 15:05 64.62992 11.82233 8002 ft 168 kts 192°
2026-05-06 15:05 64.61831 11.81901 8003 ft 168 kts 191°
2026-05-06 15:06 64.60670 11.81569 8005 ft 169 kts 191°
2026-05-06 15:06 64.59500 11.81236 8005 ft 169 kts 192°
2026-05-06 15:06 64.58336 11.80903 8007 ft 169 kts 192°
2026-05-06 15:06 64.57170 11.80575 8010 ft 169 kts 191°
2026-05-06 15:07 64.56003 11.80244 8009 ft 169 kts 192°
2026-05-06 15:07 64.54846 11.79916 8009 ft 167 kts 192°
2026-05-06 15:07 64.53693 11.79589 8011 ft 166 kts 192°
2026-05-06 15:07 64.52543 11.79265 8011 ft 167 kts 192°
2026-05-06 15:08 64.51387 11.78936 8013 ft 168 kts 192°
2026-05-06 15:08 64.50226 11.78610 8011 ft 167 kts 192°
2026-05-06 15:08 64.49073 11.78283 8017 ft 168 kts 192°
2026-05-06 15:08 64.47924 11.77959 8015 ft 169 kts 191°
2026-05-06 15:09 64.46760 11.77630 8015 ft 169 kts 191°
2026-05-06 15:09 64.45593 11.77303 8016 ft 169 kts 191°
2026-05-06 15:09 64.44421 11.76973 8017 ft 169 kts 191°
2026-05-06 15:09 64.43254 11.76645 8013 ft 169 kts 192°
2026-05-06 15:10 64.42092 11.76319 8015 ft 167 kts 191°
2026-05-06 15:10 64.40944 11.75997 8015 ft 167 kts 192°
2026-05-06 15:10 64.39789 11.75672 8015 ft 167 kts 191°
2026-05-06 15:10 64.38626 11.75347 8016 ft 169 kts 191°
2026-05-06 15:11 64.37460 11.75020 8014 ft 169 kts 191°
2026-05-06 15:11 64.36295 11.74695 8017 ft 169 kts 191°
2026-05-06 15:11 64.35129 11.74369 8011 ft 170 kts 191°
2026-05-06 15:11 64.33948 11.74038 8014 ft 170 kts 191°
2026-05-06 15:12 64.32771 11.73710 8011 ft 170 kts 191°
2026-05-06 15:12 64.31595 11.73388 8009 ft 170 kts 191°
2026-05-06 15:12 64.30455 11.73067 8007 ft 169 kts 191°
2026-05-06 15:12 64.29250 11.72729 8008 ft 170 kts 191°
2026-05-06 15:13 64.28075 11.72404 8005 ft 170 kts 191°
2026-05-06 15:13 64.26934 11.72090 8004 ft 169 kts 192°
2026-05-06 15:13 64.25749 11.71757 8004 ft 169 kts 191°
2026-05-06 15:13 64.24567 11.71430 8002 ft 169 kts 191°
2026-05-06 15:14 64.23403 11.71108 8000 ft 169 kts 192°
2026-05-06 15:14 64.22237 11.70785 7999 ft 169 kts 191°
2026-05-06 15:14 64.21084 11.70467 7998 ft 169 kts 192°
2026-05-06 15:14 64.19904 11.70140 7997 ft 169 kts 191°
2026-05-06 15:15 64.18751 11.69823 7994 ft 169 kts 192°
2026-05-06 15:15 64.17582 11.69500 7996 ft 170 kts 191°
2026-05-06 15:15 64.16412 11.69177 7992 ft 169 kts 192°
2026-05-06 15:15 64.15247 11.68856 7989 ft 168 kts 192°
2026-05-06 15:16 64.14085 11.68537 7991 ft 168 kts 192°
2026-05-06 15:16 64.12934 11.68104 7992 ft 166 kts 202°
2026-05-06 15:16 64.11874 11.67128 7992 ft 165 kts 206°
2026-05-06 15:16 64.10800 11.66180 7996 ft 165 kts 205°
2026-05-06 15:17 64.09727 11.65230 7994 ft 165 kts 205°
2026-05-06 15:17 64.08653 11.64273 7993 ft 166 kts 205°
2026-05-06 15:17 64.07579 11.63315 7994 ft 166 kts 205°
2026-05-06 15:17 64.06502 11.62356 7993 ft 166 kts 205°
2026-05-06 15:18 64.05427 11.61398 7996 ft 166 kts 205°
2026-05-06 15:18 64.04349 11.60439 7993 ft 166 kts 206°
2026-05-06 15:18 64.03284 11.59494 7996 ft 166 kts 205°
2026-05-06 15:18 64.02204 11.58538 7993 ft 166 kts 205°
2026-05-06 15:19 64.01114 11.57569 7998 ft 167 kts 205°
2026-05-06 15:19 64.00047 11.56622 7996 ft 167 kts 205°
2026-05-06 15:19 63.98966 11.55666 7996 ft 167 kts 205°
2026-05-06 15:19 63.97887 11.54712 7996 ft 166 kts 205°
2026-05-06 15:20 63.96809 11.53759 7999 ft 166 kts 205°
2026-05-06 15:20 63.95730 11.52806 7999 ft 166 kts 205°
2026-05-06 15:20 63.94650 11.51852 7999 ft 166 kts 205°
2026-05-06 15:20 63.93574 11.50904 7997 ft 166 kts 205°
2026-05-06 15:21 63.92503 11.49961 7995 ft 166 kts 205°
2026-05-06 15:21 63.91426 11.49014 7995 ft 166 kts 205°
2026-05-06 15:21 63.90353 11.48069 7992 ft 166 kts 206°
2026-05-06 15:21 63.89276 11.47122 7994 ft 166 kts 206°
2026-05-06 15:22 63.88202 11.46179 7994 ft 166 kts 206°
2026-05-06 15:22 63.87126 11.45237 7996 ft 166 kts 205°
2026-05-06 15:22 63.86048 11.44290 7997 ft 166 kts 206°
2026-05-06 15:22 63.84971 11.43346 7997 ft 166 kts 205°
2026-05-06 15:23 63.83889 11.42398 7999 ft 167 kts 205°
2026-05-06 15:23 63.82806 11.41455 7998 ft 166 kts 206°
2026-05-06 15:23 63.81730 11.40512 7999 ft 166 kts 206°
2026-05-06 15:23 63.80653 11.39571 7996 ft 166 kts 205°
2026-05-06 15:24 63.79577 11.38633 7995 ft 166 kts 205°
2026-05-06 15:24 63.78501 11.37697 8000 ft 165 kts 205°
2026-05-06 15:24 63.77422 11.36754 7942 ft 168 kts 205°
2026-05-06 15:24 63.76281 11.36119 7829 ft 170 kts 187°
2026-05-06 15:25 63.75108 11.36458 7708 ft 173 kts 167°
2026-05-06 15:25 63.73985 11.37398 7587 ft 171 kts 165°
2026-05-06 15:25 63.72865 11.38308 7465 ft 171 kts 165°
2026-05-06 15:25 63.71747 11.39217 7341 ft 171 kts 165°
2026-05-06 15:26 63.70628 11.40124 7212 ft 171 kts 167°
2026-05-06 15:26 63.69475 11.40555 7078 ft 168 kts 180°
2026-05-06 15:26 63.68323 11.40818 7060 ft 165 kts 178°
2026-05-06 15:26 63.67208 11.41173 7056 ft 163 kts 176°
2026-05-06 15:27 63.66097 11.41555 7053 ft 161 kts 176°
2026-05-06 15:27 63.64997 11.41935 7060 ft 160 kts 176°
2026-05-06 15:27 63.63900 11.42311 7059 ft 160 kts 176°
2026-05-06 15:27 63.62799 11.42688 7061 ft 161 kts 176°
2026-05-06 15:28 63.61693 11.43070 7057 ft 161 kts 176°
2026-05-06 15:28 63.60591 11.43449 7056 ft 160 kts 176°
2026-05-06 15:28 63.59491 11.43826 7056 ft 160 kts 176°
2026-05-06 15:28 63.58402 11.44198 7010 ft 163 kts 176°
2026-05-06 15:29 63.57229 11.44594 6782 ft 172 kts 176°
2026-05-06 15:29 63.56026 11.45004 6538 ft 176 kts 176°
2026-05-06 15:29 63.54824 11.45421 6297 ft 173 kts 176°
2026-05-06 15:29 63.53644 11.45828 6079 ft 170 kts 176°
2026-05-06 15:30 63.52486 11.46225 5867 ft 167 kts 176°
2026-05-06 15:30 63.51333 11.46617 5648 ft 168 kts 176°
2026-05-06 15:30 63.50178 11.47009 5424 ft 168 kts 176°
2026-05-06 15:30 63.49013 11.47403 5197 ft 169 kts 176°
2026-05-06 15:31 63.47860 11.47314 4977 ft 165 kts 199°
2026-05-06 15:31 63.46832 11.46255 4758 ft 161 kts 220°
2026-05-06 15:31 63.46084 11.44525 4596 ft 147 kts 238°
2026-05-06 15:32 63.45597 11.40220 4348 ft 145 kts 272°
2026-05-06 15:32 63.45611 11.37970 4228 ft 145 kts 270°
2026-05-06 15:32 63.45618 11.35704 4116 ft 146 kts 271°
2026-05-06 15:32 63.45629 11.33424 4022 ft 146 kts 271°
2026-05-06 15:33 63.45638 11.31164 3877 ft 148 kts 270°
2026-05-06 15:33 63.45649 11.28856 3647 ft 151 kts 271°
2026-05-06 15:33 63.45659 11.26473 3398 ft 151 kts 270°
2026-05-06 15:33 63.45670 11.24136 3192 ft 149 kts 271°
2026-05-06 15:34 63.45679 11.21803 2945 ft 151 kts 271°
2026-05-06 15:34 63.45687 11.19427 2707 ft 152 kts 270°
2026-05-06 15:34 63.45696 11.17162 2472 ft 140 kts 269°
2026-05-06 15:34 63.45703 11.15051 2255 ft 125 kts 271°
2026-05-06 15:35 63.45709 11.13235 2063 ft 111 kts 268°
2026-05-06 15:35 63.45713 11.11591 1892 ft 103 kts 269°
2026-05-06 15:35 63.45715 11.10013 1732 ft 102 kts 269°
2026-05-06 15:35 63.45721 11.08435 1557 ft 101 kts 269°
2026-05-06 15:36 63.45727 11.06886 1389 ft 101 kts 269°
2026-05-06 15:36 63.45730 11.05248 1229 ft 110 kts 271°
2026-05-06 15:36 63.45737 11.03471 1042 ft 115 kts 271°
2026-05-06 15:36 63.45742 11.01651 854 ft 118 kts 272°
2026-05-06 15:37 63.45747 10.99811 663 ft 118 kts 272°
2026-05-06 15:37 63.45751 10.97945 470 ft 121 kts 274°
2026-05-06 15:37 63.45751 10.96278 298 ft 97 kts 276°
2026-05-06 15:37 63.45753 10.94874 198 ft 86 kts 274°
2026-05-06 15:38 63.45751 10.93554 69 ft 79 kts 274°
2026-05-06 15:38 63.45757 10.92715 49 ft 30 kts 278°
2026-05-06 15:38 63.45738 10.92439 47 ft 11 kts 216°
2026-05-06 15:38 63.45626 10.92416 48 ft 22 kts 180°
2026-05-06 15:39 63.45462 10.92430 50 ft 23 kts 179°
2026-05-06 15:39 63.45314 10.92427 52 ft 20 kts 180°
2026-05-06 15:39 63.45200 10.92456 53 ft 8 kts 118°
2026-05-06 15:39 63.45197 10.92491 53 ft 0 kts 83°